| time (UTC) | temp C | wind direction | speed KPH | gust KPH | rain 1hr cm | rain 24hr cm | rain mn cm | humidity % | barometer mb |
| 20260508102119 | 1 | 180 | 0.0 | 0.0 | 0.00 | 0.00 | 0.00 | 99 | 1017.7 |
| 20260508101615 | 1 | 179 | 0.0 | 0.0 | 0.00 | 0.00 | 0.00 | 99 | 1017.6 |
| 20260508101113 | 1 | 179 | 0.0 | 0.0 | 0.00 | 0.00 | 0.00 | 99 | 1017.7 |
| 20260508100610 | 1 | 181 | 0.0 | 0.0 | 0.00 | 0.00 | 0.00 | 99 | 1017.6 |
| 20260508100108 | 1 | 180 | 0.0 | 0.0 | 0.00 | 0.00 | 0.00 | 99 | 1017.8 |
| 20260508095604 | 1 | 180 | 0.0 | 0.0 | 0.00 | 0.00 | 0.00 | 99 | 1017.6 |
| 20260508095101 | 1 | 179 | 0.0 | 0.0 | 0.00 | 0.00 | 0.00 | 99 | 1017.4 |
| 20260508094559 | 1 | 182 | 0.0 | 0.0 | 0.00 | 0.00 | 0.00 | 99 | 1017.6 |
| 20260508094055 | 2 | 182 | 0.0 | 0.0 | 0.00 | 0.00 | 0.00 | 99 | 1017.5 |
| 20260508093553 | 2 | 182 | 0.0 | 0.0 | 0.00 | 0.00 | 0.00 | 99 | 1017.6 |
| 20260508093050 | 2 | 186 | 0.0 | 0.0 | 0.00 | 0.00 | 0.00 | 99 | 1017.3 |
| 20260508092547 | 2 | 187 | 0.0 | 0.0 | 0.00 | 0.00 | 0.00 | 99 | 1017.4 |
| 20260508092046 | 2 | 187 | 0.0 | 0.0 | 0.00 | 0.00 | 0.00 | 99 | 1017.4 |
| 20260508091543 | 2 | 190 | 0.0 | 0.0 | 0.00 | 0.00 | 0.00 | 99 | 1017.5 |
| 20260508091039 | 2 | 192 | 0.0 | 0.0 | 0.00 | 0.00 | 0.00 | 99 | 1017.3 |
| 20260508090538 | 2 | 187 | 0.0 | 0.0 | 0.00 | 0.00 | 0.00 | 99 | 1017.3 |
| 20260508090034 | 2 | 186 | 0.0 | 0.0 | 0.00 | 0.00 | 0.00 | 99 | 1017.1 |
| 20260508085530 | 2 | 181 | 0.0 | 0.0 | 0.00 | 0.00 | 0.00 | 99 | 1017.4 |
| 20260508085028 | 2 | 185 | 0.0 | 0.0 | 0.00 | 0.00 | 0.00 | 99 | 1017.3 |
| 20260508084524 | 2 | 187 | 0.0 | 0.0 | 0.00 | 0.00 | 0.00 | 99 | 1017.3 |
| 20260508084022 | 2 | 187 | 0.0 | 0.0 | 0.00 | 0.00 | 0.00 | 99 | 1017.2 |
| 20260508083519 | 2 | 187 | 0.0 | 0.0 | 0.00 | 0.00 | 0.00 | 99 | 1017.4 |
| 20260508083015 | 2 | 182 | 0.0 | 0.0 | 0.00 | 0.00 | 0.00 | 99 | 1017.4 |
| 20260508082511 | 2 | 183 | 0.0 | 0.0 | 0.00 | 0.00 | 0.00 | 99 | 1017.1 |
| 20260508082009 | 2 | 182 | 0.0 | 0.0 | 0.00 | 0.00 | 0.00 | 98 | 1017.2 |
| 20260508081506 | 2 | 182 | 0.0 | 0.0 | 0.00 | 0.00 | 0.00 | 98 | 1017.1 |
| 20260508081002 | 2 | 182 | 0.0 | 0.0 | 0.00 | 0.00 | 0.00 | 98 | 1017.2 |
| 20260508080500 | 3 | 181 | 0.0 | 0.0 | 0.00 | 0.00 | 0.00 | 98 | 1017.1 |
| 20260508075957 | 3 | 187 | 0.0 | 0.0 | 0.00 | 0.00 | 0.00 | 97 | 1017.2 |
| 20260508075454 | 3 | 187 | 0.0 | 0.0 | 0.00 | 0.00 | 0.00 | 97 | 1016.9 |
| 20260508074951 | 3 | 187 | 0.0 | 0.0 | 0.00 | 0.00 | 0.00 | 97 | 1017.0 |
| 20260508074449 | 3 | 187 | 0.0 | 0.0 | 0.00 | 0.00 | 0.00 | 97 | 1017.2 |
| 20260508073945 | 3 | 187 | 0.0 | 0.0 | 0.00 | 0.00 | 0.00 | 96 | 1017.0 |
| 20260508073443 | 3 | 181 | 0.0 | 0.0 | 0.00 | 0.00 | 0.00 | 96 | 1016.9 |
| 20260508072939 | 3 | 182 | 0.0 | 0.0 | 0.00 | 0.00 | 0.00 | 96 | 1017.0 |
| 20260508072436 | 3 | 180 | 0.0 | 0.0 | 0.00 | 0.00 | 0.00 | 96 | 1016.4 |
| 20260508071933 | 3 | 202 | 0.0 | 0.0 | 0.00 | 0.00 | 0.00 | 96 | 1016.7 |
| 20260508071431 | 3 | 182 | 0.0 | 0.0 | 0.00 | 0.00 | 0.00 | 96 | 1016.7 |
| 20260508070928 | 3 | 192 | 0.0 | 0.0 | 0.00 | 0.00 | 0.00 | 96 | 1016.7 |
| 20260508070426 | 3 | 192 | 0.0 | 0.0 | 0.00 | 0.00 | 0.00 | 96 | 1016.8 |
| 20260508065924 | 3 | 179 | 0.0 | 0.0 | 0.00 | 0.00 | 0.00 | 96 | 1016.9 |
| 20260508065422 | 3 | 187 | 0.0 | 0.0 | 0.00 | 0.00 | 0.00 | 96 | 1016.9 |
| 20260508064919 | 3 | 172 | 0.0 | 0.0 | 0.00 | 0.00 | 0.00 | 96 | 1016.7 |
| 20260508064416 | 3 | 187 | 0.0 | 0.0 | 0.00 | 0.00 | 0.00 | 97 | 1016.8 |
| 20260508063914 | 3 | 177 | 0.0 | 0.0 | 0.00 | 0.00 | 0.00 | 97 | 1016.7 |
| 20260508063412 | 3 | 177 | 0.0 | 0.0 | 0.00 | 0.00 | 0.00 | 97 | 1016.5 |
| 20260508062908 | 3 | 182 | 0.0 | 0.0 | 0.00 | 0.00 | 0.00 | 97 | 1016.7 |
| 20260508062406 | 3 | 174 | 0.0 | 0.0 | 0.00 | 0.00 | 0.00 | 96 | 1016.9 |
| 20260508061903 | 4 | 185 | 0.0 | 0.0 | 0.00 | 0.00 | 0.00 | 96 | 1016.7 |
| 20260508061401 | 4 | 185 | 0.0 | 0.0 | 0.00 | 0.00 | 0.00 | 96 | 1016.7 |
| 20260508060857 | 4 | 185 | 0.0 | 0.0 | 0.00 | 0.00 | 0.00 | 96 | 1016.5 |
| 20260508060355 | 4 | 188 | 0.0 | 0.0 | 0.00 | 0.00 | 0.00 | 96 | 1016.9 |
| 20260508055856 | 4 | 191 | 0.0 | 0.0 | 0.00 | 0.00 | 0.00 | 96 | 1016.8 |
| 20260508055353 | 4 | 190 | 0.0 | 0.0 | 0.00 | 0.00 | 0.00 | 96 | 1017.1 |
| 20260508054849 | 4 | 191 | 0.0 | 0.0 | 0.00 | 0.00 | 0.00 | 96 | 1016.9 |
| 20260508054342 | 5 | 187 | 0.0 | 0.0 | 0.00 | 0.00 | 0.00 | 96 | 1016.7 |
| 20260508053838 | 5 | 188 | 0.0 | 0.0 | 0.00 | 0.00 | 0.00 | 96 | 1016.8 |
| 20260508053336 | 5 | 189 | 0.0 | 0.0 | 0.00 | 0.00 | 0.00 | 95 | 1016.7 |
| 20260508052833 | 5 | 197 | 0.0 | 0.0 | 0.00 | 0.00 | 0.00 | 95 | 1016.9 |
| 20260508052331 | 5 | 192 | 0.0 | 0.0 | 0.00 | 0.00 | 0.00 | 95 | 1017.0 |
| 20260508051826 | 5 | 187 | 0.0 | 0.0 | 0.00 | 0.00 | 0.00 | 95 | 1016.4 |
| 20260508051322 | 5 | 183 | 0.0 | 0.0 | 0.00 | 0.00 | 0.00 | 94 | 1016.3 |
| 20260508050818 | 5 | 180 | 0.0 | 0.0 | 0.00 | 0.00 | 0.00 | 95 | 1016.2 |
| 20260508050316 | 5 | 183 | 0.0 | 0.0 | 0.00 | 0.00 | 0.00 | 94 | 1016.2 |
| 20260508045811 | 5 | 183 | 0.0 | 0.0 | 0.00 | 0.00 | 0.00 | 94 | 1016.1 |
| 20260508045309 | 5 | 182 | 0.0 | 0.0 | 0.00 | 0.00 | 0.00 | 94 | 1016.0 |
| 20260508044807 | 5 | 184 | 0.0 | 0.0 | 0.00 | 0.00 | 0.00 | 94 | 1015.8 |
| 20260508044303 | 5 | 183 | 0.0 | 0.0 | 0.00 | 0.00 | 0.00 | 93 | 1015.8 |
| 20260508043759 | 6 | 183 | 0.0 | 0.0 | 0.00 | 0.00 | 0.00 | 93 | 1015.7 |
| 20260508043257 | 6 | 183 | 0.0 | 0.0 | 0.00 | 0.00 | 0.00 | 93 | 1015.8 |
| 20260508042753 | 6 | 192 | 0.0 | 0.0 | 0.00 | 0.00 | 0.00 | 93 | 1016.0 |
| 20260508042251 | 6 | 192 | 0.0 | 0.0 | 0.00 | 0.00 | 0.00 | 92 | 1015.9 |
| 20260508041747 | 6 | 192 | 0.0 | 0.0 | 0.00 | 0.00 | 0.00 | 92 | 1015.8 |
| 20260508041244 | 6 | 192 | 0.0 | 0.0 | 0.00 | 0.00 | 0.00 | 91 | 1015.7 |
| 20260508040740 | 7 | 185 | 0.0 | 0.0 | 0.00 | 0.00 | 0.00 | 90 | 1015.7 |
| 20260508040238 | 7 | 187 | 0.0 | 0.0 | 0.00 | 0.00 | 0.00 | 88 | 1015.9 |
| 20260508035735 | 7 | 187 | 0.0 | 0.0 | 0.00 | 0.05 | 0.05 | 86 | 1015.8 |
| 20260508035232 | 7 | 190 | 0.0 | 0.0 | 0.00 | 0.05 | 0.05 | 85 | 1015.6 |
| 20260508034729 | 7 | 190 | 0.0 | 0.0 | 0.00 | 0.05 | 0.05 | 85 | 1015.5 |
| 20260508034226 | 8 | 189 | 0.0 | 0.0 | 0.00 | 0.05 | 0.05 | 83 | 1015.4 |
| 20260508033723 | 8 | 194 | 0.0 | 1.6 | 0.00 | 0.05 | 0.05 | 81 | 1015.5 |
| 20260508033222 | 8 | 190 | 0.0 | 0.0 | 0.00 | 0.05 | 0.05 | 79 | 1015.5 |
| 20260508032719 | 8 | 190 | 0.0 | 0.0 | 0.00 | 0.05 | 0.05 | 78 | 1015.7 |
| 20260508032216 | 8 | 219 | 0.0 | 1.6 | 0.00 | 0.05 | 0.05 | 81 | 1015.6 |
| 20260508031712 | 8 | 224 | 1.6 | 1.6 | 0.00 | 0.05 | 0.05 | 79 | 1015.7 |
| 20260508031203 | 8 | 188 | 0.0 | 0.0 | 0.00 | 0.05 | 0.05 | 80 | 1015.5 |
| 20260508030659 | 8 | 193 | 1.6 | 1.6 | 0.00 | 0.05 | 0.05 | 79 | 1015.4 |
| 20260508030157 | 8 | 220 | 1.6 | 1.6 | 0.00 | 0.05 | 0.05 | 78 | 1015.2 |
| 20260508025653 | 9 | 186 | 0.0 | 1.6 | 0.00 | 0.05 | 0.05 | 79 | 1015.2 |
| 20260508025150 | 9 | 234 | 1.6 | 1.6 | 0.00 | 0.05 | 0.05 | 75 | 1015.3 |
| 20260508024646 | 9 | 223 | 1.6 | 1.6 | 0.00 | 0.05 | 0.05 | 76 | 1015.1 |
| 20260508024144 | 10 | 188 | 0.0 | 1.6 | 0.00 | 0.05 | 0.05 | 75 | 1015.2 |
| 20260508023639 | 9 | 184 | 1.6 | 1.6 | 0.00 | 0.05 | 0.05 | 78 | 1015.1 |
| 20260508023137 | 10 | 220 | 1.6 | 1.6 | 0.00 | 0.05 | 0.05 | 75 | 1014.7 |
| 20260508022633 | 10 | 190 | 1.6 | 1.6 | 0.00 | 0.05 | 0.05 | 76 | 1014.9 |
| 20260508022130 | 10 | 188 | 1.6 | 1.6 | 0.00 | 0.05 | 0.05 | 75 | 1014.7 |
| 20260508021626 | 10 | 262 | 1.6 | 1.6 | 0.00 | 0.05 | 0.05 | 76 | 1014.9 |
| 20260508021122 | 10 | 192 | 1.6 | 1.6 | 0.00 | 0.05 | 0.05 | 76 | 1014.5 |
| 20260508020620 | 10 | 189 | 1.6 | 1.6 | 0.00 | 0.05 | 0.05 | 75 | 1014.5 |
| 20260508020117 | 10 | 191 | 0.0 | 1.6 | 0.00 | 0.05 | 0.05 | 77 | 1014.5 |
| 20260508015615 | 10 | 191 | 1.6 | 1.6 | 0.00 | 0.05 | 0.05 | 76 | 1014.2 |
| 20260508015111 | 10 | 236 | 1.6 | 1.6 | 0.00 | 0.05 | 0.05 | 77 | 1014.2 |
| 20260508014607 | 10 | 240 | 3.2 | 4.8 | 0.00 | 0.05 | 0.05 | 73 | 1014.0 |
| 20260508014104 | 10 | 212 | 1.6 | 1.6 | 0.00 | 0.05 | 0.05 | 73 | 1014.0 |
| 20260508013600 | 10 | 217 | 1.6 | 1.6 | 0.00 | 0.05 | 0.05 | 77 | 1014.1 |
| 20260508013057 | 10 | 216 | 1.6 | 1.6 | 0.00 | 0.05 | 0.05 | 75 | 1013.9 |
| 20260508012555 | 10 | 205 | 3.2 | 3.2 | 0.00 | 0.05 | 0.05 | 74 | 1013.7 |
| 20260508012052 | 10 | 291 | 4.8 | 8.0 | 0.00 | 0.05 | 0.05 | 81 | 1013.9 |
| 20260508011550 | 10 | 187 | 0.0 | 0.0 | 0.00 | 0.05 | 0.05 | 79 | 1013.9 |
| 20260508011047 | 10 | 206 | 1.6 | 1.6 | 0.00 | 0.05 | 0.05 | 80 | 1013.6 |
| 20260508010544 | 10 | 260 | 1.6 | 3.2 | 0.00 | 0.05 | 0.05 | 83 | 1013.6 |
| 20260508010041 | 10 | 133 | 1.6 | 3.2 | 0.00 | 0.05 | 0.05 | 82 | 1013.5 |
| 20260508005537 | 9 | 183 | 0.0 | 0.0 | 0.00 | 0.05 | 0.05 | 85 | 1013.7 |
| 20260508005034 | 10 | 163 | 0.0 | 1.6 | 0.00 | 0.05 | 0.05 | 84 | 1013.5 |
| 20260508004530 | 10 | 189 | 0.0 | 0.0 | 0.00 | 0.05 | 0.05 | 83 | 1013.4 |
| 20260508004027 | 10 | 189 | 0.0 | 0.0 | 0.00 | 0.05 | 0.05 | 82 | 1013.6 |
| 20260508003524 | 10 | 191 | 0.0 | 0.0 | 0.00 | 0.05 | 0.05 | 80 | 1013.4 |
| 20260508003022 | 10 | 179 | 0.0 | 0.0 | 0.00 | 0.05 | 0.05 | 81 | 1013.4 |
| 20260508002517 | 10 | 183 | 0.0 | 0.0 | 0.00 | 0.05 | 0.05 | 79 | 1013.4 |
| 20260508002015 | 11 | 198 | 0.0 | 0.0 | 0.00 | 0.05 | 0.05 | 76 | 1013.6 |
| 20260508001510 | 11 | 183 | 0.0 | 0.0 | 0.00 | 0.05 | 0.05 | 73 | 1013.4 |
| 20260508001006 | 12 | 179 | 0.0 | 1.6 | 0.00 | 0.05 | 0.05 | 73 | 1013.4 |
| 20260508000502 | 12 | 187 | 0.0 | 0.0 | 0.00 | 0.05 | 0.05 | 72 | 1013.4 |
| 20260507235959 | 12 | 196 | 1.6 | 1.6 | 0.00 | 0.05 | 0.05 | 69 | 1013.2 |
| 20260507235451 | 12 | 239 | 3.2 | 4.8 | 0.00 | 0.05 | 0.05 | 69 | 1013.4 |
| 20260507234948 | 12 | 273 | 4.8 | 4.8 | 0.00 | 0.05 | 0.05 | 65 | 1013.2 |
| 20260507234445 | 13 | 172 | 1.6 | 1.6 | 0.00 | 0.05 | 0.05 | 68 | 1013.2 |
| 20260507233941 | 13 | 207 | 1.6 | 1.6 | 0.00 | 0.05 | 0.05 | 66 | 1013.0 |
| 20260507233438 | 13 | 190 | 0.0 | 1.6 | 0.00 | 0.05 | 0.05 | 66 | 1013.2 |
| 20260507232936 | 13 | 298 | 6.4 | 8.0 | 0.00 | 0.05 | 0.05 | 64 | 1013.0 |
| 20260507232432 | 14 | 209 | 1.6 | 1.6 | 0.00 | 0.05 | 0.05 | 63 | 1012.8 |
| 20260507231929 | 14 | 183 | 3.2 | 3.2 | 0.00 | 0.05 | 0.05 | 61 | 1013.0 |
| 20260507231420 | 15 | 315 | 4.8 | 4.8 | 0.00 | 0.05 | 0.05 | 63 | 1012.8 |
| 20260507230918 | 15 | 232 | 3.2 | 3.2 | 0.00 | 0.05 | 0.05 | 61 | 1012.8 |
| 20260507230415 | 15 | 157 | 1.6 | 1.6 | 0.00 | 0.05 | 0.05 | 62 | 1012.9 |
| 20260507225914 | 14 | 283 | 4.8 | 4.8 | 0.00 | 0.05 | 0.05 | 61 | 1012.8 |
| 20260507225411 | 15 | 289 | 4.8 | 8.0 | 0.00 | 0.05 | 0.05 | 60 | 1012.7 |
| 20260507224907 | 15 | 236 | 3.2 | 3.2 | 0.00 | 0.05 | 0.05 | 61 | 1012.6 |
| 20260507224403 | 15 | 256 | 6.4 | 8.0 | 0.00 | 0.05 | 0.05 | 60 | 1012.5 |
| 20260507223900 | 15 | 229 | 9.7 | 11.3 | 0.00 | 0.05 | 0.05 | 60 | 1012.5 |
| 20260507223357 | 15 | 270 | 4.8 | 4.8 | 0.00 | 0.05 | 0.05 | 60 | 1012.5 |
| 20260507222853 | 15 | 262 | 6.4 | 8.0 | 0.00 | 0.05 | 0.05 | 59 | 1012.3 |
| 20260507222344 | 15 | 331 | 6.4 | 9.7 | 0.00 | 0.05 | 0.05 | 59 | 1012.4 |
| 20260507221841 | 15 | 236 | 3.2 | 3.2 | 0.00 | 0.05 | 0.05 | 58 | 1012.4 |
| 20260507221337 | 15 | 206 | 1.6 | 1.6 | 0.00 | 0.05 | 0.05 | 60 | 1012.4 |
| 20260507220832 | 15 | 201 | 4.8 | 4.8 | 0.00 | 0.05 | 0.05 | 59 | 1012.5 |
| 20260507220331 | 15 | 209 | 8.0 | 9.7 | 0.00 | 0.05 | 0.05 | 59 | 1012.4 |
| 20260507215827 | 15 | 247 | 4.8 | 4.8 | 0.00 | 0.05 | 0.05 | 59 | 1012.3 |
| 20260507215324 | 15 | 250 | 6.4 | 8.0 | 0.00 | 0.05 | 0.05 | 59 | 1012.5 |
| 20260507214821 | 15 | 283 | 1.6 | 3.2 | 0.00 | 0.05 | 0.05 | 65 | 1012.4 |
| 20260507214319 | 15 | 188 | 4.8 | 8.0 | 0.00 | 0.05 | 0.05 | 60 | 1012.4 |
| 20260507213813 | 15 | 289 | 1.6 | 3.2 | 0.00 | 0.05 | 0.05 | 67 | 1012.2 |
| 20260507213311 | 14 | 248 | 1.6 | 3.2 | 0.00 | 0.05 | 0.05 | 65 | 1011.9 |
| 20260507212808 | 14 | 272 | 4.8 | 4.8 | 0.00 | 0.05 | 0.05 | 65 | 1012.1 |
| 20260507212306 | 14 | 196 | 4.8 | 4.8 | 0.00 | 0.05 | 0.05 | 64 | 1011.9 |
| 20260507211800 | 15 | 309 | 6.4 | 8.0 | 0.00 | 0.05 | 0.05 | 65 | 1012.0 |
| 20260507211257 | 15 | 294 | 6.4 | 11.3 | 0.00 | 0.05 | 0.05 | 65 | 1011.9 |
| 20260507210754 | 15 | 90 | 11.3 | 17.7 | 0.00 | 0.05 | 0.05 | 64 | 1011.8 |
| 20260507210251 | 15 | 196 | 6.4 | 9.7 | 0.00 | 0.05 | 0.05 | 66 | 1011.8 |
| 20260507205747 | 14 | 297 | 4.8 | 8.0 | 0.00 | 0.05 | 0.05 | 67 | 1011.7 |
| 20260507205244 | 15 | 296 | 3.2 | 3.2 | 0.00 | 0.05 | 0.05 | 67 | 1011.6 |
| 20260507204740 | 15 | 184 | 3.2 | 3.2 | 0.00 | 0.05 | 0.05 | 64 | 1011.8 |
| 20260507204238 | 15 | 304 | 12.9 | 16.1 | 0.00 | 0.05 | 0.05 | 64 | 1011.9 |
| 20260507203736 | 14 | 225 | 3.2 | 3.2 | 0.00 | 0.05 | 0.05 | 68 | 1011.7 |
| 20260507203233 | 14 | 258 | 3.2 | 3.2 | 0.00 | 0.05 | 0.05 | 68 | 1011.7 |
| 20260507202730 | 14 | 276 | 6.4 | 8.0 | 0.00 | 0.05 | 0.05 | 67 | 1011.6 |
| 20260507202226 | 15 | 260 | 6.4 | 8.0 | 0.00 | 0.05 | 0.05 | 67 | 1011.8 |
| 20260507201720 | 15 | 252 | 6.4 | 8.0 | 0.00 | 0.05 | 0.05 | 65 | 1011.3 |
| 20260507201217 | 15 | 305 | 8.0 | 9.7 | 0.00 | 0.05 | 0.05 | 66 | 1011.3 |
| 20260507200714 | 15 | 4 | 6.4 | 8.0 | 0.00 | 0.05 | 0.05 | 69 | 1011.6 |
| 20260507200210 | 14 | 278 | 11.3 | 14.5 | 0.00 | 0.05 | 0.05 | 68 | 1011.5 |
| 20260507195706 | 15 | 309 | 6.4 | 9.7 | 0.00 | 0.05 | 0.05 | 68 | 1011.7 |
| 20260507195203 | 15 | 234 | 3.2 | 3.2 | 0.00 | 0.05 | 0.05 | 69 | 1011.7 |
| 20260507194700 | 15 | 290 | 3.2 | 3.2 | 0.00 | 0.05 | 0.05 | 71 | 1011.8 |
| 20260507194156 | 14 | 197 | 0.0 | 0.0 | 0.00 | 0.05 | 0.05 | 71 | 1011.3 |
| 20260507193648 | 15 | 248 | 4.8 | 4.8 | 0.00 | 0.05 | 0.05 | 72 | 1011.8 |
| 20260507193145 | 13 | 246 | 1.6 | 3.2 | 0.00 | 0.05 | 0.05 | 73 | 1012.4 |
| 20260507192641 | 13 | 240 | 1.6 | 3.2 | 0.00 | 0.05 | 0.05 | 75 | 1012.3 |
| 20260507192138 | 13 | 283 | 4.8 | 8.0 | 0.00 | 0.05 | 0.05 | 75 | 1012.3 |
| 20260507191633 | 13 | 272 | 3.2 | 3.2 | 0.00 | 0.05 | 0.05 | 75 | 1012.7 |
| 20260507191130 | 13 | 239 | 4.8 | 4.8 | 0.00 | 0.05 | 0.05 | 75 | 1012.7 |
| 20260507190628 | 13 | 197 | 1.6 | 1.6 | 0.00 | 0.05 | 0.05 | 76 | 1012.8 |
| 20260507190127 | 13 | 225 | 1.6 | 1.6 | 0.00 | 0.05 | 0.05 | 77 | 1012.6 |
| 20260507185625 | 13 | 212 | 1.6 | 1.6 | 0.00 | 0.05 | 0.05 | 76 | 1012.8 |
| 20260507185120 | 12 | 190 | 1.6 | 1.6 | 0.00 | 0.05 | 0.05 | 78 | 1012.7 |
| 20260507184619 | 12 | 207 | 1.6 | 1.6 | 0.00 | 0.05 | 0.05 | 77 | 1012.9 |
| 20260507184117 | 12 | 196 | 1.6 | 3.2 | 0.00 | 0.05 | 0.05 | 79 | 1012.8 |
| 20260507183613 | 12 | 253 | 4.8 | 8.0 | 0.00 | 0.05 | 0.05 | 76 | 1013.2 |
| 20260507183110 | 12 | 237 | 1.6 | 1.6 | 0.00 | 0.05 | 0.05 | 78 | 1013.0 |
| 20260507182606 | 12 | 189 | 1.6 | 3.2 | 0.00 | 0.05 | 0.05 | 79 | 1012.8 |
| 20260507182102 | 12 | 235 | 3.2 | 3.2 | 0.00 | 0.05 | 0.05 | 79 | 1012.9 |
| 20260507181559 | 12 | 244 | 0.0 | 1.6 | 0.00 | 0.05 | 0.05 | 81 | 1013.0 |
| 20260507181055 | 12 | 211 | 4.8 | 4.8 | 0.00 | 0.05 | 0.05 | 80 | 1013.2 |
| 20260507180552 | 12 | 232 | 1.6 | 1.6 | 0.00 | 0.05 | 0.05 | 78 | 1012.9 |
| 20260507180049 | 12 | 219 | 3.2 | 3.2 | 0.00 | 0.05 | 0.05 | 78 | 1012.8 |
| 20260507175545 | 12 | 192 | 0.0 | 1.6 | 0.00 | 0.05 | 0.05 | 81 | 1012.8 |
| 20260507175043 | 12 | 213 | 1.6 | 1.6 | 0.00 | 0.05 | 0.05 | 81 | 1012.9 |
| 20260507174539 | 11 | 188 | 1.6 | 3.2 | 0.00 | 0.05 | 0.05 | 80 | 1012.8 |
| 20260507174037 | 11 | 345 | 4.8 | 8.0 | 0.00 | 0.05 | 0.05 | 82 | 1012.8 |
| 20260507173534 | 11 | 198 | 1.6 | 3.2 | 0.00 | 0.05 | 0.05 | 82 | 1012.9 |
| 20260507173031 | 11 | 250 | 8.0 | 9.7 | 0.00 | 0.05 | 0.05 | 81 | 1013.3 |
| 20260507172527 | 11 | 236 | 3.2 | 3.2 | 0.00 | 0.05 | 0.05 | 83 | 1013.2 |
| 20260507172024 | 11 | 248 | 1.6 | 1.6 | 0.00 | 0.05 | 0.05 | 85 | 1013.3 |
| 20260507171519 | 11 | 191 | 3.2 | 4.8 | 0.00 | 0.05 | 0.05 | 85 | 1013.0 |
| 20260507171017 | 11 | 238 | 4.8 | 4.8 | 0.00 | 0.05 | 0.05 | 84 | 1013.3 |
| 20260507170513 | 11 | 224 | 1.6 | 3.2 | 0.00 | 0.05 | 0.05 | 85 | 1013.2 |
| 20260507170010 | 11 | 228 | 1.6 | 1.6 | 0.00 | 0.05 | 0.05 | 86 | 1013.4 |
| 20260507165506 | 11 | 265 | 3.2 | 3.2 | 0.00 | 0.05 | 0.05 | 86 | 1013.0 |
| 20260507165003 | 11 | 206 | 1.6 | 3.2 | 0.00 | 0.05 | 0.05 | 85 | 1012.9 |
| 20260507164459 | 11 | 191 | 1.6 | 3.2 | 0.00 | 0.05 | 0.05 | 86 | 1013.3 |
| 20260507163956 | 11 | 199 | 0.0 | 1.6 | 0.00 | 0.05 | 0.05 | 86 | 1013.3 |
| 20260507163453 | 11 | 203 | 1.6 | 1.6 | 0.00 | 0.05 | 0.05 | 86 | 1013.5 |
| 20260507162950 | 11 | 185 | 0.0 | 1.6 | 0.00 | 0.05 | 0.05 | 87 | 1013.3 |
| 20260507162446 | 11 | 239 | 1.6 | 3.2 | 0.00 | 0.05 | 0.05 | 85 | 1013.4 |
| 20260507161943 | 11 | 285 | 6.4 | 8.0 | 0.00 | 0.05 | 0.05 | 84 | 1013.7 |
| 20260507161439 | 11 | 238 | 3.2 | 4.8 | 0.00 | 0.05 | 0.05 | 85 | 1013.4 |
| 20260507160936 | 11 | 263 | 3.2 | 4.8 | 0.00 | 0.05 | 0.05 | 85 | 1013.2 |
| 20260507160432 | 11 | 207 | 1.6 | 1.6 | 0.00 | 0.05 | 0.05 | 86 | 1013.4 |
| 20260507155927 | 11 | 235 | 3.2 | 3.2 | 0.00 | 0.05 | 0.05 | 84 | 1013.5 |
| 20260507155424 | 11 | 224 | 1.6 | 1.6 | 0.00 | 0.05 | 0.05 | 85 | 1013.5 |
| 20260507154921 | 11 | 223 | 1.6 | 1.6 | 0.00 | 0.05 | 0.05 | 86 | 1013.4 |
| 20260507154418 | 11 | 235 | 1.6 | 3.2 | 0.00 | 0.05 | 0.05 | 86 | 1013.7 |
| 20260507153915 | 11 | 285 | 4.8 | 4.8 | 0.00 | 0.05 | 0.05 | 86 | 1013.3 |
| 20260507153412 | 11 | 287 | 6.4 | 9.7 | 0.00 | 0.05 | 0.05 | 86 | 1013.7 |
| 20260507152908 | 11 | 199 | 0.0 | 0.0 | 0.00 | 0.05 | 0.05 | 87 | 1013.5 |
| 20260507152404 | 11 | 192 | 3.2 | 3.2 | 0.00 | 0.05 | 0.05 | 89 | 1013.5 |
| 20260507151900 | 11 | 278 | 6.4 | 8.0 | 0.00 | 0.05 | 0.05 | 87 | 1013.5 |
| 20260507151356 | 11 | 250 | 4.8 | 4.8 | 0.00 | 0.05 | 0.05 | 87 | 1013.8 |
| 20260507150854 | 11 | 232 | 3.2 | 3.2 | 0.00 | 0.05 | 0.05 | 89 | 1013.7 |
| 20260507150351 | 10 | 264 | 3.2 | 3.2 | 0.00 | 0.05 | 0.05 | 91 | 1013.8 |
| 20260507145847 | 10 | 206 | 3.2 | 3.2 | 0.00 | 0.05 | 0.05 | 90 | 1013.7 |
| 20260507145343 | 11 | 216 | 3.2 | 3.2 | 0.00 | 0.05 | 0.05 | 88 | 1013.6 |
| 20260507144840 | 11 | 263 | 4.8 | 4.8 | 0.00 | 0.05 | 0.05 | 86 | 1013.7 |
| 20260507144337 | 12 | 260 | 3.2 | 4.8 | 0.00 | 0.05 | 0.05 | 86 | 1013.4 |
| 20260507143834 | 12 | 204 | 1.6 | 1.6 | 0.00 | 0.05 | 0.05 | 89 | 1013.5 |
| 20260507143331 | 12 | 199 | 3.2 | 3.2 | 0.00 | 0.05 | 0.05 | 87 | 1013.3 |
| 20260507142827 | 12 | 351 | 3.2 | 4.8 | 0.00 | 0.05 | 0.05 | 85 | 1013.4 |
| 20260507142324 | 11 | 216 | 1.6 | 1.6 | 0.00 | 0.05 | 0.05 | 87 | 1013.2 |
| 20260507141820 | 11 | 211 | 1.6 | 1.6 | 0.00 | 0.05 | 0.05 | 87 | 1013.5 |
| 20260507141317 | 12 | 217 | 3.2 | 3.2 | 0.00 | 0.05 | 0.05 | 87 | 1013.3 |
| 20260507140814 | 12 | 206 | 1.6 | 1.6 | 0.00 | 0.05 | 0.05 | 88 | 1013.5 |
| 20260507140310 | 11 | 243 | 1.6 | 3.2 | 0.00 | 0.05 | 0.05 | 88 | 1013.6 |
| 20260507135808 | 11 | 219 | 1.6 | 1.6 | 0.00 | 0.05 | 0.05 | 89 | 1013.4 |
| 20260507135306 | 11 | 233 | 1.6 | 3.2 | 0.00 | 0.05 | 0.05 | 89 | 1013.6 |
| 20260507134801 | 11 | 201 | 1.6 | 1.6 | 0.00 | 0.05 | 0.05 | 90 | 1013.6 |
| 20260507134258 | 11 | 231 | 1.6 | 1.6 | 0.00 | 0.05 | 0.05 | 92 | 1013.4 |
| 20260507133754 | 11 | 217 | 3.2 | 3.2 | 0.00 | 0.05 | 0.05 | 90 | 1013.6 |
| 20260507133250 | 11 | 197 | 1.6 | 1.6 | 0.00 | 0.05 | 0.05 | 91 | 1013.7 |
| 20260507132749 | 11 | 192 | 0.0 | 1.6 | 0.00 | 0.05 | 0.05 | 92 | 1013.7 |
| 20260507132245 | 11 | 192 | 1.6 | 1.6 | 0.00 | 0.05 | 0.05 | 93 | 1013.6 |
| 20260507131742 | 11 | 190 | 0.0 | 1.6 | 0.00 | 0.05 | 0.05 | 93 | 1013.7 |
| 20260507131239 | 11 | 224 | 1.6 | 1.6 | 0.00 | 0.05 | 0.05 | 94 | 1014.0 |
| 20260507130735 | 11 | 274 | 3.2 | 3.2 | 0.00 | 0.05 | 0.05 | 95 | 1013.8 |
| 20260507130233 | 11 | 183 | 0.0 | 1.6 | 0.00 | 0.05 | 0.05 | 96 | 1013.7 |
| 20260507125732 | 11 | 208 | 1.6 | 1.6 | 0.00 | 0.05 | 0.05 | 96 | 1014.1 |
| 20260507125229 | 11 | 244 | 1.6 | 1.6 | 0.00 | 0.05 | 0.05 | 96 | 1014.1 |
| 20260507124726 | 11 | 199 | 1.6 | 3.2 | 0.00 | 0.05 | 0.05 | 96 | 1013.9 |
| 20260507124222 | 11 | 207 | 0.0 | 0.0 | 0.00 | 0.05 | 0.05 | 97 | 1013.7 |
| 20260507123721 | 11 | 239 | 1.6 | 3.2 | 0.00 | 0.05 | 0.05 | 97 | 1013.8 |
| 20260507123218 | 11 | 228 | 1.6 | 1.6 | 0.00 | 0.05 | 0.05 | 98 | 1013.6 |
| 20260507122713 | 11 | 216 | 0.0 | 1.6 | 0.00 | 0.05 | 0.05 | 98 | 1013.8 |
| 20260507122209 | 11 | 195 | 0.0 | 0.0 | 0.00 | 0.05 | 0.05 | 99 | 1013.9 |
| 20260507121705 | 11 | 188 | 0.0 | 0.0 | 0.00 | 0.05 | 0.05 | 98 | 1013.7 |
| 20260507121201 | 11 | 190 | 0.0 | 0.0 | 0.00 | 0.05 | 0.05 | 99 | 1013.7 |
| 20260507120657 | 11 | 197 | 0.0 | 0.0 | 0.00 | 0.05 | 0.05 | 98 | 1013.5 |
| 20260507120155 | 11 | 181 | 0.0 | 0.0 | 0.00 | 0.05 | 0.05 | 98 | 1013.5 |
| 20260507115651 | 11 | 174 | 1.6 | 1.6 | 0.00 | 0.05 | 0.05 | 97 | 1013.6 |
| 20260507115146 | 11 | 233 | 3.2 | 3.2 | 0.00 | 0.05 | 0.05 | 97 | 1013.5 |
| 20260507114643 | 11 | 194 | 0.0 | 1.6 | 0.00 | 0.05 | 0.05 | 97 | 1013.6 |
| 20260507114140 | 11 | 236 | 1.6 | 1.6 | 0.00 | 0.05 | 0.05 | 98 | 1013.6 |
| 20260507113637 | 11 | 207 | 1.6 | 1.6 | 0.00 | 0.05 | 0.05 | 98 | 1013.2 |
| 20260507113134 | 11 | 202 | 0.0 | 0.0 | 0.00 | 0.05 | 0.05 | 97 | 1013.7 |
| 20260507112632 | 11 | 210 | 0.0 | 1.6 | 0.00 | 0.05 | 0.05 | 98 | 1013.5 |
| 20260507112128 | 11 | 228 | 3.2 | 3.2 | 0.00 | 0.05 | 0.05 | 98 | 1013.6 |
| 20260507111626 | 11 | 225 | 1.6 | 1.6 | 0.00 | 0.05 | 0.05 | 99 | 1013.3 |
| 20260507111122 | 11 | 247 | 1.6 | 3.2 | 0.00 | 0.05 | 0.05 | 99 | 1013.2 |
| 20260507110618 | 11 | 210 | 1.6 | 1.6 | 0.00 | 0.05 | 0.05 | 99 | 1013.2 |
| 20260507110115 | 11 | 223 | 3.2 | 3.2 | 0.00 | 0.05 | 0.05 | 99 | 1013.2 |
| 20260507105612 | 11 | 201 | 0.0 | 0.0 | 0.00 | 0.05 | 0.05 | 99 | 1013.0 |
| 20260507105108 | 11 | 211 | 0.0 | 0.0 | 0.00 | 0.05 | 0.05 | 99 | 1013.0 |
| 20260507104606 | 11 | 190 | 0.0 | 0.0 | 0.00 | 0.05 | 0.05 | 99 | 1012.9 |
| 20260507104102 | 11 | 195 | 0.0 | 0.0 | 0.00 | 0.05 | 0.05 | 99 | 1012.7 |
| 20260507103558 | 11 | 228 | 1.6 | 1.6 | 0.00 | 0.05 | 0.05 | 99 | 1012.9 |
| 20260507103055 | 11 | 215 | 1.6 | 1.6 | 0.00 | 0.05 | 0.05 | 99 | 1012.9 |
| 20260507102551 | -17 | 0.0 | 0.0 | 0.00 | 0.00 | 0.00 | 1012.8 |